Weather in Port Hardy

Canada     50°43′05″N   127°29′33″W
temp.,
°C
wind,
m/s
gust,
m/s
humid.,
%
clouds,
%
prec.,
mm/h
press.,
hPa
HPBL,
m
30 november, tue
tue3001:00+7se71092100 8.1 1014891
04:00+6ese111393100 16.5 1012635
07:00+6ese111393100 7.4 1012517
10:00+7ese111194100 14.3 1013462
13:00+7ese101195100 7.8 1012415
16:00+7ese8898100 20.9 1012292
19:00+8ese7698100 9.7 1013204
22:00+7ese6698100 15.1 1013228
1 december, wed
wed101:00+8ese3399100 7.7 1013168
04:00+8nnw2398100 18.3 1012201
07:00+7n3497100 10.7 1012203
10:00+8nw5693100 12.3 1014287
13:00+8nw2486100 0.1 1016286
16:00+8sse2285100 0.3 101579
19:00+8sw3688100 0.9 1016402
22:00+7nw101267100 3.9 10201425
2 december, thu
thu201:00+5wnw6763100 0.0 10231134
04:00+4w4668100 0.2 1024745
07:00+4wsw3669100 0.4 1025505
10:00+4wsw367192 0.9 1027455
13:00+5w4667100 0.8 1028882
16:00+5wnw466759 1.6 1028860
19:00+5nnw5663100 0.3 10291202
22:00+4nnw2364100 0.3 1030459
3 december, fri
fri301:00+3nw13664 0.0 1030380
04:00+3wnw127141 0.0 1029322
07:00+2e1174100 0.0 1028336
10:00+3se1174100 0.0 1028336
13:00+3se3275100 0.0 1027424
16:00+3se2272100 0.0 1025318
19:00+3sse2275100 0.0 1024295
22:00+2sse2274100 0.0 1024275
4 december, sat
sat401:00+2sse2274100 0.0 1023223
04:00+2s2277100 0.1 1023286
07:00+1sse2298100 1.8 1023134
10:00+2s2296100 2.0 1026320
13:00+4nnw127771 0.2 1028593
16:00+3nnw22798 0.8 1030327
19:00+3sw117421 0.2 1031170
22:00+3wnw127699 0.2 1032227